Location: Occidental Observatory
(38.4214°N, 122.9202°W)
Time: 14:14:43
(UTC-08:00)

Daily predictions for brighter satellites

Satellite Brightness Start Highest point End
(mag) Time Altitude Azimuth Time Altitude Azimuth Time Altitude Azimuth
CORIOLIS 4.4 17:17:19 10° SE 17:22:29 46° ENE 17:27:37 10° N
Cosmos 1048 Rocket 4.0 17:18:30 10° NNW 17:23:48 66° ENE 17:29:07 10° SSE
Cosmos 2341 Rocket 4.0 17:19:18 10° N 17:25:32 75° E 17:31:44 10° SSE
CZ-3B DEB 2.2 17:23:10 10° SSW 17:26:10 44° ESE 17:33:08 10° NE
Cosmos 158 Rocket 4.3 17:21:05 10° N 17:26:16 47° ENE 17:31:20 10° SE
COSMOS 2406 3.4 17:21:45 10° NNW 17:27:21 53° ENE 17:32:55 10° SE
Cosmos 2278 Rocket 3.5 17:23:16 10° SSE 17:27:22 21° E 17:31:28 10° NE
CZ-3A R/B 3.3 17:24:04 10° WSW 17:27:58 57° NNW 17:46:10 10° NE
Cosmos 1484 Rocket 4.0 17:28:02 10° ESE 17:30:50 20° ENE 17:33:37 10° NNE
CZ-2C R/B 2.4 17:30:00 10° SSE 17:34:50 68° ENE 17:39:53 10° N
SPOT 3 Rocket 3.5 17:32:04 10° SSE 17:37:15 75° ENE 17:42:26 10° N
Meteor 1-5 Rocket 4.1 17:32:54 10° N 17:38:16 64° E 17:43:46 10° SSE
Cosmos 1238 Rocket 3.0 17:38:51 10° SSE 17:41:28 27° E 17:43:57 11° NNE
PAYLOAD A 4.4 17:39:37 10° S 17:44:18 62° W 17:49:10 10° NNW
CRYOSAT 2 4.4 17:42:44 10° N 17:47:40 88° E 17:52:34 10° S
Okean 1 4.2 17:47:11 10° SSE 17:50:38 28° E 17:53:41 12° NE
IDEFIX/ARIANE 42P 2.6 17:46:23 10° SSE 17:51:36 86° WSW 17:56:49 10° NNW
Cosmos 1536 3.6 17:47:53 10° NNW 17:51:53 56° W 17:55:52 10° S
COSMOS 2441 4.5 17:47:36 10° SSE 17:52:18 53° ENE 17:57:04 10° N
Cosmos 2082 Rocket 3.9 17:50:26 10° NNE 17:52:45 13° NE 17:52:45 13° NE
USA 32 4.0 17:50:23 10° S 17:55:36 79° E 18:00:50 10° N
Hubble Space Telescope 3.4 17:54:48 10° SW 17:57:15 15° SSW 17:59:42 10° SSE
COSMO-SKYMED 1 2.8 17:54:42 10° NNE 17:58:54 47° E 18:03:04 10° S
Cosmos 1833 Rocket 4.5 17:58:34 10° NNE 17:59:57 12° NE 17:59:57 12° NE
Cosmos 1544 Rocket 3.5 17:56:47 10° N 18:01:13 67° E 18:05:39 10° SSE
BREEZE-M R/B 4.5 17:49:52 10° SW 18:01:51 72° SE 18:05:51 20° ENE
Cosmos 1975 Rocket 4.0 17:58:15 10° SSW 18:02:24 48° W 18:06:36 10° N
Cosmos 1500 4.4 17:59:28 10° NNE 18:03:19 22° E 18:05:39 10° SE
Cosmos 864 Rocket 4.5 17:59:26 10° N 18:05:40 64° E 18:11:55 10° SSE
Meteor 1-28 Rocket 4.1 18:04:52 24° ENE 18:06:02 29° E 18:09:23 10° SSE
SMAP 3.9 18:02:46 10° S 18:07:19 54° W 18:11:53 10° NNW
SL-24 DEB 4.2 18:02:40 10° NNE 18:07:24 62° E 18:12:03 10° S
Meteor 1-18 Rocket 4.2 18:02:33 10° S 18:08:05 69° E 18:13:47 10° NNE
CZ-4 R/B 3.4 18:07:15 10° SSW 18:11:02 33° W 18:14:50 10° NNW
Cosmos 1346 Rocket 3.4 18:10:21 10° SSE 18:13:51 31° E 18:14:10 31° E
MSX 3.9 18:09:16 10° S 18:15:01 81° WSW 18:20:48 10° NNW
ORS 1 (USA 231) 4.5 18:12:02 10° WNW 18:15:14 78° N 18:16:06 45° E
Cosmos 1812 2.6 18:14:46 10° S 18:18:37 87° W 18:22:30 10° N
Cosmos 1536 Rocket 3.5 18:14:25 10° S 18:18:50 74° E 18:23:18 10° N
NOAA 12 4.4 18:16:53 10° SE 18:21:51 43° ENE 18:26:48 10° N
YAOGAN 1 4.3 18:21:25 10° SSW 18:25:21 34° W 18:29:19 10° NNW
OTV 4 1.3 18:23:12 10° W 18:26:07 44° SSW 18:26:41 38° SSE
Cosmos 494 Rocket 3.9 18:22:23 10° NNW 18:27:37 71° ENE 18:32:51 10° SSE
Cosmos 1975 2.7 18:28:14 10° N 18:32:19 74° E 18:36:21 10° SSE
BREEZE M DEB (TANK) 4.2 18:29:52 10° NW 18:33:26 32° NNE 18:34:57 29° NE
Cosmos 2251 Rocket 3.5 18:29:46 10° NNW 18:35:09 85° WSW 18:40:28 10° SSE
NOSS 3-3 (A) 3.9 18:30:11 10° SSW 18:36:18 76° ESE 18:39:53 28° NE
NOSS 3-3 (C) 3.9 18:30:17 10° SSW 18:36:24 75° ESE 18:39:57 29° NE
SL-27 R/B 3.4 18:34:37 10° NNW 18:38:13 51° WSW 18:41:44 10° S
Meteor 1-12 Rocket 4.4 18:33:08 10° NNW 18:38:55 80° W 18:44:47 10° S
Okean 1-7 Rocket 4.3 18:35:42 10° SSE 18:38:57 37° SE 18:38:57 37° SE
ISS -1.5 18:41:20 10° W 18:44:06 24° NNW 18:44:12 24° NNW
Cosmos 1844 Rocket 4.0 18:40:18 10° SW 18:45:24 36° WNW 18:50:35 10° N
ATLAS 2AS CENTAUR R/B 3.0 18:38:54 10° NNW 18:46:59 87° WSW 18:54:28 10° SSE
Meteor 2-21 Rocket 4.4 18:41:36 10° N 18:47:46 64° E 18:53:51 10° SSE
Cosmos 1455 Rocket 4.3 18:46:51 10° NNW 18:50:59 41° W 18:55:08 10° SSW
GEOS 3 Rocket 3.9 18:46:00 10° SSE 18:51:05 66° WSW 18:56:11 10° NW
Cosmos 2297 3.7 18:47:48 10° S 18:53:16 55° ESE 18:53:32 54° E
Meteor 2-16 Rocket 4.4 18:48:11 10° N 18:54:11 58° E 19:00:09 10° SSE
SL-8 R/B 3.5 18:49:50 10° WSW 18:54:37 84° NW 18:55:03 73° NE
SL-24 R/B - RUBIN 2 4.5 18:49:14 10° SSW 18:55:18 60° ESE 18:56:36 51° ENE
Timation 2 Rocket 4.3 18:51:08 10° NNW 18:57:45 51° ENE 18:58:19 49° ENE
Cosmos 1535 Rocket 4.5 18:52:36 10° N 18:58:50 56° E 19:04:55 10° SSE
Meteor 1-19 Rocket 4.2 18:53:37 10° S 18:59:17 66° E 19:00:13 57° NE
BREEZE M DEB (TANK) 2.6 18:53:18 10° WSW 19:01:05 73° NW 19:01:07 73° NNW
Cosmos 1241 Rocket 4.4 18:59:43 10° NNW 19:06:23 84° ENE 19:09:19 36° SE
Timation 1 Rocket 4.4 19:02:40 10° S 19:07:53 57° SE 19:07:53 57° SE
Cosmos 2278 Rocket 2.9 19:05:33 10° SW 19:11:01 49° WNW 19:13:52 27° N
Tiangong 1 4.2 19:09:57 10° SW 19:10:03 11° SW 19:10:03 11° SW
Meteor 1-13 Rocket 4.3 19:07:26 10° SSW 19:13:02 76° W 19:15:32 35° N
Cosmos 2239 Rocket 4.3 19:11:38 10° N 19:17:53 81° E 19:24:02 10° S
Cosmos 1821 Rocket 4.2 19:19:34 10° N 19:30:13 19° S 19:31:48 10° S
Cosmos 2082 Rocket 3.7 19:32:13 10° NNW 19:34:39 27° NNW 19:34:39 27° NNW
ATLAS 3B CENTAUR R/B 3.8 19:49:03 10° WSW 19:59:39 36° SSW 19:59:39 36° SSW
CZ-3B DEB 4.2 19:57:07 10° WNW 20:02:33 35° N 20:03:16 35° N
FALCON 9 R/B 4.0 20:22:10 10° W 20:31:06 40° WSW 20:31:06 40° WSW
